Weather History for GMTT - October, 2012

Change the Weather History Date:

Tuesday, October 16, 2012

  Actual Average Record
Temperature  
Mean Temperature 63 °F -  
Max Temperature 75 °F 69 °F 82 °F (2008)
Min Temperature 51 °F 54 °F 51 °F (2012)
Degree Days  
Heating Degree Days 2    
Growing Degree Days 13 (Base 50)    
Moisture  
Dew Point 51 °F    
Average Humidity 65    
Maximum Humidity 88    
Minimum Humidity 39    
Precipitation  
Precipitation 0.00 in 0.13 in - ()
Sea Level Pressure  
Sea Level Pressure 29.98 in    
Wind  
Wind Speed 8 mph ()    
Max Wind Speed 21 mph    
Max Gust Speed -    
Visibility 3.7 miles    
Events      
Averages and records for this station are not official NWS values.
T = Trace of Precipitation, MM = Missing Value Source: Averaged Metar Reports

Daily Weather History Graph

Daily Weather History Graph

Search for Another Location

Airport or City:

Trip Planner

Search our weather history database for the weather conditions in past years. The results will help you decide how hot, cold, wet, or windy it might be!

Date:

Astronomy

Oct. 16, 2012 Rise Set
Actual Time 6:31 AM WET 5:46 PM WET
Civil Twilight 6:05 AM WET 6:12 PM WET
Nautical Twilight 5:35 AM WET 6:41 PM WET
Astronomical Twilight 5:06 AM WET 7:11 PM WET
Moon 7:33 AM WET (10/16) 6:24 PM WET (10/16)
Length of Visible Light 12h 06m
Length of Day
11h 15m
New Moon, 1% of the Moon is Illuminated
Oct 16
New Moon
Oct 22
First Quarter
Oct 29
Full
Nov 7
Last Quarter
Nov 13
New

Hourly Weather History & Observations

Time (WET) Temp. Dew Point Humidity Pressure Visibility Wind Dir Wind Speed Gust Speed Precip Events Conditions
12:00 AM 56 °F 49 °F 69% 30.05 in 5 mi East 6.9 mph - -   Scattered Clouds
12:00 AM 55.4 °F 48.2 °F 77% 30.04 in 5.0 mi East 6.9 mph - N/A   Partly Cloudy
12:30 AM 55.4 °F 48.2 °F 77% 30.04 in 5.0 mi East 5.8 mph - N/A   Partly Cloudy
1:00 AM 55.4 °F 46.4 °F 72% 30.04 in 5.0 mi East 3.5 mph - N/A   Partly Cloudy
1:30 AM 55.4 °F 48.2 °F 77% 30.04 in 1.2 mi East 5.8 mph - N/A   Partly Cloudy
2:00 AM 53.6 °F 48.2 °F 82% 30.01 in 1.1 mi East 6.9 mph - N/A   Partly Cloudy
2:30 AM 53.6 °F 46.4 °F 77% 30.01 in 1.1 mi East 3.5 mph - N/A   Partly Cloudy
3:00 AM 54 °F 46 °F 67% 30.01 in 1 mi ENE 2.3 mph - -  
3:00 AM 53.6 °F 46.4 °F 77% 30.01 in 1.1 mi ENE 2.3 mph - N/A   Unknown
3:30 AM 53.6 °F 48.2 °F 82% 30.01 in 1.1 mi East 4.6 mph - N/A   Unknown
4:00 AM 51.8 °F 46.4 °F 82% 29.98 in 1.1 mi Calm Calm - N/A   Unknown
4:30 AM 51.8 °F 46.4 °F 82% 30.01 in 1.1 mi Variable 1.2 mph - N/A   Unknown
5:00 AM 53.6 °F 48.2 °F 82% 30.01 in 1.1 mi Variable 2.3 mph - N/A   Unknown
5:30 AM 51.8 °F 46.4 °F 82% 30.01 in 1.1 mi East 3.5 mph - N/A   Unknown
6:00 AM 52 °F 47 °F 78% 30.01 in 5 mi ESE 3.5 mph - -   Partly Cloudy
6:00 AM 51.8 °F 46.4 °F 82% 30.01 in 5.0 mi ESE 3.5 mph - N/A   Scattered Clouds
6:30 AM 51.8 °F 48.2 °F 88% 30.01 in 5.0 mi Calm Calm - N/A   Scattered Clouds
7:00 AM 53.6 °F 48.2 °F 82% 30.01 in 5.0 mi Calm Calm - N/A   Unknown
7:30 AM 59.0 °F 55.4 °F 88% 30.01 in 5.0 mi ESE 4.6 mph - N/A   Unknown
8:00 AM 62.6 °F 55.4 °F 77% 30.01 in 5.0 mi East 9.2 mph - N/A   Unknown
8:30 AM 64.4 °F 53.6 °F 68% 30.01 in 5.0 mi East 10.4 mph - N/A   Unknown
9:00 AM 67 °F 53 °F 52% 30.04 in 6 mi East 10.4 mph - -  
9:00 AM 66.2 °F 53.6 °F 64% 30.04 in - East 11.5 mph - N/A   Clear
9:30 AM 68.0 °F 51.8 °F 56% 30.04 in - East 11.5 mph - N/A   Clear
10:00 AM 69.8 °F 53.6 °F 56% 30.04 in - East 12.7 mph - N/A   Clear
10:30 AM 71.6 °F 53.6 °F 53% 30.04 in - ENE 13.8 mph - N/A   Clear
11:00 AM 71.6 °F 55.4 °F 57% 30.04 in - ENE 17.3 mph - N/A   Clear
11:30 AM 71.6 °F 57.2 °F 60% 30.01 in - ENE 15.0 mph - N/A   Clear
12:00 PM 74 °F 54 °F 39% 30.01 in 6 mi East 15.0 mph - -  
12:00 PM 73.4 °F 53.6 °F 50% 30.01 in - East 15.0 mph - N/A   Clear
12:30 PM 73.4 °F 53.6 °F 50% 29.98 in - ENE 16.1 mph - N/A   Clear
1:00 PM 73.4 °F 57.2 °F 57% 29.98 in - NE 18.4 mph - N/A   Clear
1:30 PM 71.6 °F 57.2 °F 60% 29.95 in - ENE 20.7 mph - N/A   Clear
2:00 PM 73.4 °F 57.2 °F 57% 29.95 in - ENE 19.6 mph - N/A   Clear
2:30 PM 71.6 °F 57.2 °F 60% 29.95 in - ENE 19.6 mph - N/A   Clear
3:00 PM 71 °F 57 °F 52% 29.94 in 6 mi ENE 20.7 mph - -  
3:00 PM 71.6 °F 57.2 °F 60% 29.92 in - ENE 20.7 mph - N/A   Clear
3:30 PM 71.6 °F 59.0 °F 64% 29.92 in - ENE 19.6 mph - N/A   Clear
4:00 PM 69.8 °F 57.2 °F 64% 29.92 in - ENE 17.3 mph - N/A   Clear
4:30 PM 69.8 °F 59.0 °F 68% 29.92 in - ENE 17.3 mph - N/A   Clear
5:00 PM 69.8 °F 59.0 °F 68% 29.92 in - East 15.0 mph - N/A   Clear
6:00 PM 68 °F 50 °F 41% 29.93 in 6 mi East 11.5 mph - -   Clear
6:00 PM 68.0 °F 50.0 °F 52% 29.92 in - East 12.7 mph - N/A   Clear
6:30 PM 68.0 °F 50.0 °F 52% 29.92 in - East 11.5 mph - N/A   Clear
7:00 PM 66.2 °F 51.8 °F 60% 29.92 in - East 13.8 mph - N/A   Clear
7:30 PM 66.2 °F 50.0 °F 56% 29.92 in - East 10.4 mph - N/A   Clear
8:00 PM 64.4 °F 48.2 °F 56% 29.92 in - ESE 9.2 mph - N/A   Clear
8:30 PM 62.6 °F 46.4 °F 55% 29.92 in - ESE 10.4 mph - N/A   Clear
9:00 PM 63 °F 47 °F 46% 29.94 in 6 mi ESE 10.4 mph - -  
9:00 PM 62.6 °F 48.2 °F 59% 29.92 in - ESE 10.4 mph - N/A   Clear
9:30 PM 62.6 °F 48.2 °F 59% 29.95 in - East 9.2 mph - N/A   Clear
10:00 PM 62.6 °F 48.2 °F 59% 29.95 in - East 10.4 mph - N/A   Clear
10:30 PM 62.6 °F 50.0 °F 63% 29.95 in - East 10.4 mph - N/A   Clear
11:00 PM 62.6 °F 50.0 °F 63% 29.92 in - ESE 11.5 mph - N/A   Clear
11:30 PM 62.6 °F 50.0 °F 63% 29.92 in - East 11.5 mph - N/A   Clear